This is the latest recevied weather packets stored in our database for station/object KB1RMA-4. If no packets are shown the sender has not sent any weather packets the latest 10 day(s).
| Time | Temp. | Humidity | Pressure | Rain* | Wind** | Luminosity | Snow |
|---|---|---|---|---|---|---|---|
| 1787782458 | 24.44° C | 59% | 1017 hPa | 0 mm | - | 38 W/m² | - |
| 1787782157 | 24.44° C | 59% | 1016.9 hPa | 0 mm | - | 40 W/m² | - |
| 1787781853 | 24.44° C | 59% | 1017 hPa | 0 mm | - | 41 W/m² | - |
| 1787781551 | 24.44° C | 60% | 1016.7 hPa | 0 mm | - | 44 W/m² | - |
| 1787781250 | 24.44° C | 60% | 1017 hPa | 0 mm | - | 44 W/m² | - |
| 1787780948 | 24.44° C | 59% | 1017.1 hPa | 0 mm | - | 46 W/m² | - |
| 1787780643 | 25° C | 59% | 1017.1 hPa | 0 mm | - | 47 W/m² | - |
| 1787780338 | 25° C | 58% | 1017.1 hPa | 0 mm | - | 49 W/m² | - |
| 1787780034 | 25.56° C | 57% | 1017.2 hPa | 0 mm | - | 50 W/m² | - |
| 1787779729 | 25.56° C | 56% | 1017 hPa | 0 mm | - | 52 W/m² | - |
| 1787779428 | 25.56° C | 57% | 1017.2 hPa | 0 mm | - | 55 W/m² | - |
| 1787779123 | 26.11° C | 57% | 1017.1 hPa | 0 mm | - | 166 W/m² | - |
| 1787778818 | 26.67° C | 55% | 1017.2 hPa | 0 mm | - | 208 W/m² | - |
| 1787778514 | 26.11° C | 54% | 1017.2 hPa | 0 mm | - | 234 W/m² | - |
| 1787778210 | 26.11° C | 54% | 1017.3 hPa | 0 mm | - | 235 W/m² | - |
| 1787777910 | 26.67° C | 54% | 1017 hPa | 0 mm | - | 224 W/m² | - |
| 1787777606 | 26.67° C | 54% | 1017.2 hPa | 0 mm | - | 262 W/m² | - |
| 1787777301 | 26.67° C | 52% | 1017.4 hPa | 0 mm | - | 292 W/m² | - |
| 1787777000 | 26.67° C | 54% | 1017.1 hPa | 0 mm | - | 263 W/m² | - |
| 1787776700 | 27.22° C | 52% | 1017.1 hPa | 0 mm | - | 161 W/m² | - |
| 1787776399 | 26.67° C | 54% | 1017.1 hPa | 0 mm | - | 337 W/m² | - |
| 1787776096 | 27.22° C | 53% | 1017.1 hPa | 0 mm | - | 322 W/m² | - |
| 1787775792 | 26.67° C | 53% | 1017.1 hPa | 0 mm | - | 357 W/m² | - |
| 1787775491 | 26.67° C | 55% | 1017.1 hPa | 0 mm | - | 391 W/m² | - |
| 1787775189 | 27.22° C | 53% | 1017 hPa | 0 mm | - | 401 W/m² | - |
* Rain latest hour (hover to see other rain measurements)
** Current wind speed in m/s (hover to see current wind gust speed)